Weather History for KMWC - February, 2014

Change the Weather History Date:

Monday, February 10, 2014

  Actual Average Record
Temperature  
Mean Temperature 2 °F -  
Max Temperature 8 °F 30 °F - (-1)
Min Temperature -5 °F 14 °F - (-1)
Degree Days  
Heating Degree Days 64    
Moisture  
Dew Point -10 °F    
Average Humidity 61    
Maximum Humidity 71    
Minimum Humidity 48    
Precipitation  
Precipitation 0.00 in - - ()
Sea Level Pressure  
Sea Level Pressure 30.35 in    
Wind  
Wind Speed 8 mph (WNW)    
Max Wind Speed 14 mph    
Max Gust Speed -    
Visibility 10 miles    
Events      
Averages and records for this station are not official NWS values.
T = Trace of Precipitation, MM = Missing Value Source: NWS Daily Summary

Daily Weather History Graph

Daily Weather History Graph

Search for Another Location

Airport or City:

Trip Planner

Search our weather history database for the weather conditions in past years. The results will help you decide how hot, cold, wet, or windy it might be!

Date:

Astronomy

Feb. 10, 2014 Rise Set
Actual Time 6:56 AM CST 5:16 PM CST
Civil Twilight 6:27 AM CST 5:46 PM CST
Nautical Twilight 5:53 AM CST 6:19 PM CST
Astronomical Twilight 5:20 AM CST 6:52 PM CST
Moon 1:42 PM CST (2/10) 3:52 AM CST (2/10)
Length of Visible Light 11h 19m
Length of Day
10h 20m
Waxing Gibbous, 85% of the Moon is Illuminated
Feb 10
Waxing Gibbous
Feb 14
Full
Feb 22
Last Quarter
Mar 1
New
Mar 8
First Quarter

Hourly Weather History & Observations

Time (CST) Temp. Windchill Dew Point Humidity Pressure Visibility Wind Dir Wind Speed Gust Speed Precip Events Conditions
12:15 AM 3.2 °F -10.3 °F -7.6 °F 61% 30.27 in 10.0 mi WNW 8.1 mph - N/A   Clear
12:35 AM 3.2 °F -10.3 °F -7.6 °F 61% 30.27 in 10.0 mi WNW 8.1 mph - N/A   Clear
12:55 AM 1.4 °F -14.5 °F -9.4 °F 61% 30.27 in 10.0 mi WNW 10.4 mph - N/A   Clear
1:15 AM 1.4 °F -16.1 °F -9.4 °F 61% 30.26 in 10.0 mi WNW 12.7 mph - N/A   Clear
1:35 AM 1.4 °F -11.3 °F -9.4 °F 61% 30.27 in 10.0 mi WNW 6.9 mph - N/A   Clear
1:55 AM 1.4 °F -9.9 °F -9.4 °F 61% 30.27 in 10.0 mi WNW 5.8 mph - N/A   Clear
2:15 AM 1.4 °F -13.5 °F -9.4 °F 61% 30.28 in 10.0 mi WNW 9.2 mph - N/A   Clear
2:35 AM -0.4 °F -14.7 °F -9.4 °F 66% 30.28 in 10.0 mi WNW 8.1 mph - N/A   Clear
2:55 AM -0.4 °F -15.7 °F -9.4 °F 66% 30.28 in 10.0 mi WNW 9.2 mph - N/A   Clear
3:15 AM -0.4 °F -14.7 °F -9.4 °F 66% 30.28 in 10.0 mi WNW 8.1 mph - N/A   Clear
3:35 AM -0.4 °F -15.7 °F -11.2 °F 60% 30.28 in 10.0 mi NW 9.2 mph - N/A   Clear
3:55 AM -0.4 °F -15.7 °F -11.2 °F 60% 30.29 in 10.0 mi WNW 9.2 mph - N/A   Clear
4:15 AM -0.4 °F -14.7 °F -11.2 °F 60% 30.29 in 10.0 mi NW 8.1 mph - N/A   Clear
4:35 AM -2.2 °F -14.2 °F -13.0 °F 60% 30.30 in 10.0 mi WNW 5.8 mph - N/A   Clear
4:55 AM -2.2 °F -15.6 °F -13.0 °F 60% 30.31 in 10.0 mi WNW 6.9 mph - N/A   Clear
5:15 AM -4.0 °F -19.0 °F -13.0 °F 65% 30.32 in 10.0 mi WNW 8.1 mph - N/A   Clear
5:35 AM -4.0 °F -17.8 °F -13.0 °F 65% 30.33 in 10.0 mi WNW 6.9 mph - N/A   Clear
5:55 AM -4.0 °F -19.0 °F -13.0 °F 65% 30.33 in 10.0 mi WNW 8.1 mph - N/A   Clear
6:15 AM -4.0 °F -20.2 °F -13.0 °F 65% 30.33 in 10.0 mi WNW 9.2 mph - N/A   Clear
6:35 AM -4.0 °F -17.8 °F -13.0 °F 65% 30.33 in 10.0 mi WNW 6.9 mph - N/A   Clear
6:45 AM -5.8 °F -21.2 °F -14.8 °F 65% 30.34 in 10.0 mi WNW 8.1 mph - N/A   Clear
7:45 AM -5.8 °F -22.4 °F -14.8 °F 65% 30.36 in 10.0 mi WNW 9.2 mph - N/A   Clear
8:45 AM -0.4 °F -14.7 °F -11.2 °F 60% 30.37 in 10.0 mi WNW 8.1 mph - N/A   Clear
9:45 AM 3.2 °F -11.3 °F -9.4 °F 56% 30.37 in 10.0 mi WNW 9.2 mph - N/A   Clear
10:45 AM 6.8 °F -9.3 °F -7.6 °F 52% 30.38 in 10.0 mi NW 12.7 mph - N/A   Clear
11:45 AM 6.8 °F -8.6 °F -7.6 °F 52% 30.37 in 10.0 mi NW 11.5 mph - N/A   Clear
12:45 PM 8.6 °F -7.7 °F -7.6 °F 48% 30.35 in 10.0 mi WNW 13.8 mph - N/A   Clear
1:45 PM 8.6 °F -3.7 °F -7.6 °F 48% 30.35 in 10.0 mi WNW 8.1 mph - N/A   Clear
2:45 PM 8.6 °F -6.3 °F -7.6 °F 48% 30.35 in 10.0 mi West 11.5 mph - N/A   Clear
3:45 PM 6.8 °F -8.6 °F -7.6 °F 52% 30.36 in 10.0 mi WSW 11.5 mph - N/A   Clear
4:45 PM 6.8 °F -6.9 °F -7.6 °F 52% 30.37 in 10.0 mi West 9.2 mph - N/A   Clear
5:45 PM 3.2 °F -9.1 °F -9.4 °F 56% 30.40 in 10.0 mi West 6.9 mph - N/A   Clear
6:45 PM 3.2 °F -6.2 °F -9.4 °F 56% 30.41 in 10.0 mi WSW 4.6 mph - N/A   Clear
7:45 PM 1.4 °F -8.3 °F -9.4 °F 61% 30.41 in 10.0 mi WSW 4.6 mph - N/A   Clear
8:15 PM 1.4 °F -6.2 °F -9.4 °F 61% 30.42 in 10.0 mi WSW 3.5 mph - N/A   Clear
8:35 PM 1.4 °F -8.3 °F -9.4 °F 61% 30.42 in 10.0 mi WSW 4.6 mph - N/A   Clear
8:55 PM 1.4 °F -8.3 °F -7.6 °F 66% 30.42 in 10.0 mi West 4.6 mph - N/A   Clear
9:15 PM 1.4 °F -6.2 °F -7.6 °F 66% 30.42 in 10.0 mi West 3.5 mph - N/A   Clear
9:35 PM 1.4 °F -9.9 °F -9.4 °F 61% 30.42 in 10.0 mi West 5.8 mph - N/A   Clear
9:55 PM 1.4 °F -8.3 °F -9.4 °F 61% 30.43 in 10.0 mi West 4.6 mph - N/A   Clear
10:15 PM -0.4 °F -10.4 °F -9.4 °F 66% 30.43 in 10.0 mi West 4.6 mph - N/A   Clear
10:35 PM -0.4 °F -8.3 °F -9.4 °F 66% 30.43 in 10.0 mi West 3.5 mph - N/A   Clear
10:55 PM -0.4 °F -8.3 °F -9.4 °F 66% 30.44 in 10.0 mi West 3.5 mph - N/A   Clear
11:15 PM -0.4 °F -8.3 °F -9.4 °F 66% 30.43 in 10.0 mi West 3.5 mph - N/A   Clear
11:35 PM -2.2 °F - -9.4 °F 71% 30.44 in 10.0 mi Calm Calm - N/A   Clear
11:55 PM -4.0 °F -12.4 °F -11.2 °F 71% 30.44 in 10.0 mi WSW 3.5 mph - N/A   Clear